STARLINK-34385

Last updated on Thu Jul 03 2025 00:02:06 GMT+0000 (Coordinated Universal Time)

1 64352U 25126J 25183.58335648 -.01406708 00000+0 -17001-1 0 9994 2 64352 69.9994 310.2167 0003209 268.8970 313.2431 15.63225045 4321
UTC large
Height (km)
Speed (km/s)
/
Latitude / Longitude
Inclination (degrees)
Orbital Period (minutes)
Azimuth
Elevation
Range (km)
Doppler Factor

Next 0 passes for location: London (51.5072 / 0.1276)

Sorry there are no passes over London.